| time (UTC) | temp F | wind direction | speed knots | gust knots | rain 1hr in | rain 24hr in | rain mn in | humidity % | barometer mb |
| 20260904090605 | 55 | 222 | 0.0 | 0.9 | 0.00 | 0.00 | 0.00 | 47 | 1018.9 |
| 20260904090111 | 55 | 35 | 0.0 | 0.9 | 0.00 | 0.00 | 0.00 | 46 | 1018.9 |
| 20260904080605 | 53 | 39 | 0.0 | 0.0 | 0.00 | 0.00 | 0.00 | 48 | 1018.8 |
| 20260904080111 | 54 | 47 | 0.0 | 0.0 | 0.00 | 0.00 | 0.00 | 48 | 1018.9 |
| 20260904070605 | 54 | 41 | 0.0 | 1.7 | 0.00 | 0.00 | 0.00 | 49 | 1018.8 |
| 20260904060605 | 55 | 36 | 0.0 | 0.0 | 0.00 | 0.00 | 0.00 | 45 | 1018.7 |
| 20260904060113 | 55 | 40 | 0.0 | 0.0 | 0.00 | 0.00 | 0.00 | 45 | 1018.7 |
| 20260904050607 | 59 | 24 | 0.0 | 0.0 | 0.00 | 0.00 | 0.00 | 37 | 1018.7 |
| 20260904040112 | 60 | 22 | 0.0 | 0.9 | 0.00 | 0.00 | 0.00 | 33 | 1019.0 |
| 20260904030607 | 61 | 27 | 0.0 | 0.0 | 0.00 | 0.00 | 0.00 | 31 | 1018.9 |
| 20260904030112 | 61 | 27 | 0.0 | 0.0 | 0.00 | 0.00 | 0.00 | 31 | 1018.9 |
| 20260904020606 | 67 | 17 | 0.0 | 0.0 | 0.00 | 0.00 | 0.00 | 22 | 1018.5 |
| 20260904020114 | 67 | 17 | 0.0 | 0.0 | 0.00 | 0.00 | 0.00 | 21 | 1018.5 |
| 20260904010113 | 74 | 13 | 0.9 | 7.0 | 0.00 | 0.00 | 0.00 | 14 | 1018.8 |
| 20260904000607 | 77 | 183 | 0.9 | 7.8 | 0.00 | 0.00 | 0.00 | 13 | 1018.9 |
| 20260904000113 | 77 | 198 | 0.9 | 7.0 | 0.00 | 0.00 | 0.00 | 13 | 1018.9 |
| 20260903230606 | 77 | 191 | 2.6 | 7.8 | 0.00 | 0.00 | 0.00 | 14 | 1019.2 |
| 20260903230113 | 77 | 208 | 1.7 | 7.8 | 0.00 | 0.00 | 0.00 | 14 | 1019.1 |
| 20260903210606 | 77 | 22 | 1.7 | 8.7 | 0.00 | 0.00 | 0.00 | 17 | 1020.1 |
| 20260903210112 | 77 | 24 | 0.9 | 5.2 | 0.00 | 0.00 | 0.00 | 18 | 1020.1 |
| 20260903200607 | 76 | 18 | 0.9 | 8.7 | 0.00 | 0.00 | 0.00 | 18 | 1020.6 |
| 20260903200113 | 76 | 17 | 2.6 | 8.7 | 0.00 | 0.00 | 0.00 | 18 | 1020.7 |
| 20260903190113 | 74 | 14 | 1.7 | 7.8 | 0.00 | 0.00 | 0.00 | 20 | 1021.2 |
| 20260903170607 | 70 | 14 | 1.7 | 7.0 | 0.00 | 0.00 | 0.00 | 29 | 1022.1 |
| 20260903170112 | 70 | 13 | 2.6 | 8.7 | 0.00 | 0.00 | 0.00 | 27 | 1022.1 |
| 20260903160607 | 66 | 14 | 1.7 | 10.4 | 0.00 | 0.00 | 0.00 | 34 | 1022.0 |
| 20260903160112 | 66 | 13 | 2.6 | 10.4 | 0.00 | 0.00 | 0.00 | 32 | 1022.1 |
| 20260903150606 | 62 | 166 | 1.7 | 8.7 | 0.00 | 0.00 | 0.00 | 49 | 1021.7 |
| 20260903140606 | 56 | 172 | 0.9 | 5.2 | 0.00 | 0.00 | 0.00 | 61 | 1021.9 |
| 20260903140112 | 56 | 189 | 0.0 | 4.3 | 0.00 | 0.00 | 0.00 | 62 | 1021.9 |
| 20260903130609 | 51 | 202 | 0.0 | 0.9 | 0.00 | 0.00 | 0.00 | 68 | 1021.4 |
| 20260903130111 | 51 | 223 | 0.0 | 0.9 | 0.00 | 0.00 | 0.00 | 67 | 1021.3 |
| 20260903120112 | 51 | 203 | 0.0 | 1.7 | 0.00 | 0.00 | 0.00 | 67 | 1021.2 |
| 20260903110606 | 51 | 142 | 0.9 | 5.2 | 0.00 | 0.00 | 0.00 | 69 | 1020.7 |
| 20260903110112 | 51 | 132 | 0.0 | 5.2 | 0.00 | 0.00 | 0.00 | 71 | 1020.7 |
| 20260903100606 | 51 | 200 | 0.0 | 0.9 | 0.00 | 0.00 | 0.00 | 71 | 1020.8 |